Regional Weather Roundup
Issued by NWS

Home | Current Version | Previous Version | Graphics & Text | Print | Product List | Glossary On
Versions: 1 2 3 4 5 6 7 8 9 10 11 12 13 14 15 16 17 18 19 20 21 22 23 24 25 26 27 28 29 30 31 32 33 34 35 36 37 38 39 40 41 42 43 44 45 46 47 48 49 50
000
ASUS43 KLSX 271359
RWRMO

WEATHER SUMMARY FOR MISSOURI
NATIONAL WEATHER SERVICE SPRINGFIELD MO
900 AM CDT MON APR 27 2015

NOTE: "FAIR" INDICATES FEW OR NO CLOUDS BELOW 12,000 FEET WITH NO
       SIGNIFICANT WEATHER AND/OR OBSTRUCTIONS TO VISIBILITY.
       CURRENT SKY AND/OR WEATHER CONDITIONS ARE NOT AVAILABLE FOR
       CHILLICOTHE AND FARMINGTON.

MOZ001>031-035>038-043-044-053-054-271500-
...NORTHERN AND WESTERN MISSOURI...

CITY           SKY/WX    TMP DP  RH WIND       PRES   REMARKS
KANSAS CTY INT CLOUDY    49  39  68 NE6       30.16R
KANSAS C DTWN  CLOUDY    51  39  63 NE3       30.16R
LEE`S SUMMIT   CLOUDY    51  39  63 NE6       30.16R
ST JOSEPH      CLOUDY    48  38  68 N5        30.17R
CHILLICOTHE      N/A     52  39  61 VRB3      30.17R
KIRKSVILLE     MOSUNNY   54  39  57 N10       30.14R

$$
MOZ066>068-077>081-088>096-101>105-271500-
...SOUTHWEST MISSOURI...

CITY           SKY/WX    TMP DP  RH WIND       PRES   REMARKS
SPRINGFIELD    CLOUDY    50  34  54 E9        30.10R
JOPLIN         CLOUDY    51  39  63 NE10      30.06R

$$
MOZ032>034-039>042-045>050-055>058-069>072-271500-
...CENTRAL MISSOURI...

CITY           SKY/WX    TMP DP  RH WIND       PRES   REMARKS
COLUMBIA       CLOUDY    50  41  71 CALM      30.13R
JEFFERSON CITY CLOUDY    49  40  71 CALM      30.14R
ROLLA          CLOUDY    49  31  49 E6        30.12R
SEDALIA        CLOUDY    48  38  68 CALM      30.16R
OSAGE BEACH    CLOUDY    48  37  66 NE5       30.14R

$$
MOZ051-052-059>065-271500-
...EAST CENTRAL MISSOURI...

CITY           SKY/WX    TMP DP  RH WIND       PRES   REMARKS
ST LOUIS INTL  CLOUDY    52  32  46 NE6       30.10R
SPIRIT OF STL  CLOUDY    49  38  65 SE3       30.11R
ST CHARLES     CLOUDY    51  33  50 N12       30.10R

$$
MOZ072>076-082>087-097>100-106>115-271500-
...SOUTH CENTRAL AND SOUTHEAST MISSOURI...

CITY           SKY/WX    TMP DP  RH WIND       PRES   REMARKS
CAPE GIRARDEAU PTSUNNY   52  34  50 NE5       30.11R
FARMINGTON     CLOUDY    48  34  57 NE3       30.15R
POPLAR BLUFF   PTSUNNY   51  34  52 NE7       30.08R
WEST PLAINS    CLOUDY    48  33  56 NE7       30.10R

$$



USA.gov is the U.S. government's official web portal to all federal, state and local government web resources and services.